Weather History for K0J4 - November, 2012

Change the Weather History Date:

Sunday, November 4, 2012

  Actual Average (KCEW) Record (KCEW)
Temperature  
Mean Temperature 68 °F -  
Max Temperature 80 °F 74 °F 84 °F (1975)
Min Temperature 57 °F 48 °F 27 °F (1999)
Cooling Degree Days 4    
Growing Degree Days 18 (Base 50)    
Moisture  
Dew Point 59 °F    
Average Humidity 84    
Maximum Humidity 100    
Minimum Humidity 45    
Precipitation  
Precipitation 0.00 in - - ()
Sea Level Pressure  
Sea Level Pressure 30.07 in    
Wind  
Wind Speed 1 mph (NNW)    
Max Wind Speed 6 mph    
Max Gust Speed -    
Visibility 6 miles    
Events Fog    
Averages and records for this station are not official NWS values.
T = Trace of Precipitation, MM = Missing Value Source: NWS Daily Summary

Daily Weather History Graph

Daily Weather History Graph

Search for Another Location

Airport or City:

Trip Planner

Search our weather history database for the weather conditions in past years. The results will help you decide how hot, cold, wet, or windy it might be!

Date:

Astronomy

Nov. 04, 2012 Rise Set
Actual Time 6:03 AM CST 4:53 PM CST
Civil Twilight 5:38 AM CST 5:19 PM CST
Nautical Twilight 5:09 AM CST 5:47 PM CST
Astronomical Twilight 4:41 AM CST 6:16 PM CST
Moon 9:34 PM CST (11/4) 10:42 AM CST (11/4)
Length of Visible Light 11h 40m
Length of Day
10h 50m
Waning Gibbous, 72% of the Moon is Illuminated
Nov 4
Waning Gibbous
Nov 6
Last Quarter
Nov 13
New
Nov 20
First Quarter
Nov 28
Full

Hourly Weather History & Observations

Time (CST) Temp. Heat Index Dew Point Humidity Pressure Visibility Wind Dir Wind Speed Gust Speed Precip Events Conditions
12:58 AM 64.0 °F - 61.0 °F 90% 30.08 in 10.0 mi Calm Calm - N/A   Clear
1:58 AM 62.1 °F - 60.1 °F 93% 30.08 in 7.0 mi Calm Calm - N/A   Clear
1:58 AM 61.0 °F - 59.0 °F 93% 30.08 in 5.0 mi Calm Calm - N/A   Clear
2:58 AM 60.1 °F - 59.0 °F 96% 30.07 in 4.0 mi Calm Calm - N/A   Clear
3:06 AM 60.8 °F - 57.2 °F 88% 30.08 in 2.5 mi Calm Calm - N/A   Clear
3:26 AM 60.8 °F - 57.2 °F 88% 30.08 in 4.0 mi Calm Calm - N/A   Clear
3:41 AM 60.8 °F - 57.2 °F 88% 30.07 in 1.5 mi Calm Calm - N/A   Partly Cloudy
3:45 AM 59.0 °F - 57.2 °F 94% 30.07 in 0.8 mi Calm Calm - N/A   Mist
3:58 AM 59.0 °F - 57.0 °F 93% 30.06 in 0.8 mi Calm Calm - N/A   Mist
4:02 AM 59.0 °F - 57.2 °F 94% 30.07 in 2.0 mi Calm Calm - N/A   Partly Cloudy
4:07 AM 59.0 °F - 57.2 °F 94% 30.08 in 4.0 mi Calm Calm - N/A   Partly Cloudy
4:17 AM 59.0 °F - 57.2 °F 94% 30.08 in 2.5 mi Calm Calm - N/A   Clear
4:21 AM 59.0 °F - 57.2 °F 94% 30.08 in 3.0 mi Calm Calm - N/A   Clear
4:58 AM 60.1 °F - 57.9 °F 93% 30.07 in 3.0 mi Calm Calm - N/A   Clear
5:05 AM 60.8 °F - 57.2 °F 88% 30.08 in 2.5 mi Calm Calm - N/A   Clear
5:34 AM 60.8 °F - 59.0 °F 94% 30.08 in 3.0 mi Calm Calm - N/A   Clear
5:46 AM 60.8 °F - 59.0 °F 94% 30.09 in 2.5 mi Calm Calm - N/A   Clear
5:53 AM 57.2 °F - 57.2 °F 100% 30.09 in 2.0 mi Calm Calm - N/A   Partly Cloudy
5:58 AM 59.0 °F - 57.0 °F 93% 30.09 in 1.2 mi Calm Calm - N/A   Scattered Clouds
5:59 AM 59.0 °F - 57.2 °F 94% 30.09 in 1.0 mi Calm Calm - N/A   Mist
6:03 AM 57.2 °F - 57.2 °F 100% 30.09 in 0.2 mi Calm Calm - N/A Fog Fog
6:58 AM 61.0 °F - 60.1 °F 97% 30.11 in 0.2 mi Calm Calm - N/A Fog Fog
7:23 AM 62.6 °F - 62.6 °F 100% 30.11 in 1.5 mi Calm Calm - N/A   Overcast
7:27 AM 62.6 °F - 62.6 °F 100% 30.12 in 3.0 mi Calm Calm - N/A   Mostly Cloudy
7:41 AM 64.4 °F - 62.6 °F 94% 30.11 in 7.0 mi Calm Calm - N/A   Scattered Clouds
7:58 AM 64.9 °F - 63.0 °F 93% 30.10 in 10.0 mi Variable 4.6 mph - N/A   Clear
8:58 AM 70.0 °F - 62.1 °F 76% 30.09 in 10.0 mi Variable 4.6 mph - N/A   Clear
9:58 AM 73.9 °F - 63.0 °F 68% 30.09 in 10.0 mi Variable 4.6 mph - N/A   Clear
10:58 AM 77.0 °F - 63.0 °F 62% 30.08 in 10.0 mi Variable 5.8 mph - N/A   Clear
11:58 AM 79.0 °F - 61.0 °F 54% 30.04 in 10.0 mi Variable 4.6 mph - N/A   Clear
12:58 PM 80.1 °F 80.4 °F 57.0 °F 45% 30.02 in 10.0 mi Variable 3.5 mph - N/A   Clear
1:58 PM 79.0 °F - 55.9 °F 45% 30.01 in 10.0 mi Variable 4.6 mph - N/A   Clear
2:58 PM 78.1 °F - 57.0 °F 48% 30.01 in 10.0 mi Calm Calm - N/A   Clear
3:58 PM 75.0 °F - 55.9 °F 51% 30.01 in 10.0 mi Calm Calm - N/A   Clear
4:58 PM 71.1 °F - 55.9 °F 59% 30.03 in 10.0 mi Variable 3.5 mph - N/A   Clear
5:58 PM 68.0 °F - 57.9 °F 70% 30.04 in 10.0 mi Calm Calm - N/A   Clear
6:58 PM 64.9 °F - 57.9 °F 78% 30.04 in 10.0 mi Calm Calm - N/A   Clear
7:58 PM 64.0 °F - 57.9 °F 80% 30.05 in 10.0 mi NNW 4.6 mph - N/A   Clear
8:58 PM 62.1 °F - 57.0 °F 84% 30.06 in 10.0 mi Variable 4.6 mph - N/A   Clear
9:58 PM 60.1 °F - 57.0 °F 90% 30.07 in 10.0 mi Calm Calm - N/A   Clear
10:58 PM 59.0 °F - 55.0 °F 87% 30.06 in 10.0 mi NNW 3.5 mph - N/A   Clear